User: anonymous   Login
Location: Chèvreville
(49.1099°N, 2.8495°E)
Time: 23:35:48
(UTC+00:00)
Language:

Cosmos 2263 Rocket - Orbit

View from above orbital plane
View from above orbital plane
View from above satellite
View from above satellite

Ground track
Ground track

The orbit data is extracted from the following two-line orbital elements,

1 22803U 93059B   23156.54475750  .00000199  00000-0  12284-3 0  9994
2 22803  70.9901 336.6104 0018965 302.3976  57.5312 14.16935059536713
Epoch (UTC): 05 June 2023 13:04:27
Eccentricity: 0.0018965
inclination: 70.9901°
perigee height: 822 km
apogee height: 849 km
right ascension of ascending node: 336.6104°
argument of perigee: 302.3976°
revolutions per day: 14.16935059
mean anomaly at epoch: 57.5312°
orbit number at epoch: 53671

The dashed part of the orbit path shows where the satellite is in the earth's shadow,  

DLR